| time (UTC) | temp F | wind direction | speed MPH | gust MPH | rain 1hr in | rain 24hr in | rain mn in | humidity % | barometer mb |
| 20260903224241 | 82 | 0.0 | 0.0 | 0.02 | 0.02 | 0.02 | 85 | 1011.5 | |
| 20260903223719 | 84 | 0.0 | 0.0 | 0.02 | 0.02 | 0.02 | 84 | 1011.5 | |
| 20260903223216 | 85 | 0.0 | 0.0 | 0.00 | 0.01 | 0.00 | 83 | 1011.5 | |
| 20260903222724 | 85 | 0.0 | 0.0 | 0.00 | 0.01 | 0.00 | 82 | 1011.4 | |
| 20260903222222 | 85 | 0.0 | 0.0 | 0.00 | 0.01 | 0.00 | 82 | 1011.6 | |
| 20260903221719 | 86 | 168 | 1.0 | 3.0 | 0.00 | 0.01 | 0.00 | 82 | 1011.2 |
| 20260903221219 | 86 | 0.0 | 0.0 | 0.00 | 0.01 | 0.00 | 81 | 1011.1 | |
| 20260903220725 | 88 | 141 | 1.0 | 2.0 | 0.00 | 0.01 | 0.00 | 79 | 1011.0 |
| 20260903220223 | 89 | 159 | 2.0 | 7.0 | 0.00 | 0.01 | 0.00 | 77 | 1010.9 |
| 20260903215720 | 89 | 118 | 0.0 | 7.0 | 0.00 | 0.01 | 0.00 | 75 | 1011.0 |
| 20260903215238 | 89 | 0.0 | 0.0 | 0.00 | 0.01 | 0.00 | 74 | 1011.1 | |
| 20260903214715 | 88 | 0.0 | 0.0 | 0.00 | 0.01 | 0.00 | 75 | 1010.8 | |
| 20260903214223 | 88 | 0.0 | 0.0 | 0.00 | 0.01 | 0.00 | 76 | 1010.9 | |
| 20260903213721 | 88 | 0.0 | 0.0 | 0.00 | 0.01 | 0.00 | 75 | 1010.8 | |
| 20260903213218 | 88 | 0.0 | 0.0 | 0.00 | 0.01 | 0.00 | 75 | 1010.8 | |
| 20260903212716 | 88 | 0.0 | 0.0 | 0.00 | 0.01 | 0.00 | 74 | 1010.5 | |
| 20260903212223 | 88 | 0.0 | 0.0 | 0.00 | 0.01 | 0.00 | 73 | 1010.5 | |
| 20260903211721 | 88 | 0.0 | 0.0 | 0.00 | 0.01 | 0.00 | 72 | 1010.4 | |
| 20260903211219 | 88 | 0.0 | 0.0 | 0.00 | 0.01 | 0.00 | 73 | 1010.4 | |
| 20260903210716 | 88 | 0.0 | 0.0 | 0.00 | 0.01 | 0.00 | 73 | 1010.7 | |
| 20260903210224 | 89 | 0.0 | 0.0 | 0.00 | 0.01 | 0.00 | 72 | 1010.5 | |
| 20260903205721 | 89 | 0.0 | 0.0 | 0.00 | 0.01 | 0.00 | 73 | 1010.7 | |
| 20260903205239 | 89 | 0.0 | 0.0 | 0.00 | 0.01 | 0.00 | 73 | 1010.6 | |
| 20260903204717 | 89 | 0.0 | 0.0 | 0.00 | 0.01 | 0.00 | 73 | 1010.6 | |
| 20260903204224 | 89 | 0.0 | 0.0 | 0.00 | 0.01 | 0.00 | 73 | 1010.8 | |
| 20260903203722 | 90 | 0.0 | 0.0 | 0.00 | 0.01 | 0.00 | 73 | 1011.1 | |
| 20260903203219 | 90 | 0.0 | 0.0 | 0.00 | 0.01 | 0.00 | 72 | 1010.9 | |
| 20260903202717 | 90 | 233 | 0.0 | 2.0 | 0.00 | 0.01 | 0.00 | 74 | 1010.9 |
| 20260903202224 | 89 | 0.0 | 0.0 | 0.00 | 0.01 | 0.00 | 77 | 1011.0 | |
| 20260903201722 | 89 | 0.0 | 0.0 | 0.00 | 0.01 | 0.00 | 77 | 1011.1 | |
| 20260903201219 | 89 | 0.0 | 0.0 | 0.00 | 0.01 | 0.00 | 77 | 1011.1 | |
| 20260903200717 | 89 | 0.0 | 0.0 | 0.00 | 0.01 | 0.00 | 77 | 1011.2 | |
| 20260903200225 | 88 | 0.0 | 0.0 | 0.00 | 0.01 | 0.00 | 78 | 1011.2 | |
| 20260903195722 | 87 | 0.0 | 0.0 | 0.00 | 0.01 | 0.00 | 80 | 1011.2 | |
| 20260903195220 | 86 | 0.0 | 0.0 | 0.00 | 0.01 | 0.00 | 81 | 1011.1 | |
| 20260903194737 | 86 | 0.0 | 0.0 | 0.00 | 0.01 | 0.00 | 80 | 1011.4 | |
| 20260903194225 | 86 | 0.0 | 0.0 | 0.00 | 0.01 | 0.00 | 80 | 1011.5 | |
| 20260903193722 | 86 | 0.0 | 0.0 | 0.00 | 0.01 | 0.00 | 80 | 1011.6 | |
| 20260903193220 | 86 | 0.0 | 0.0 | 0.00 | 0.01 | 0.00 | 81 | 1011.7 | |
| 20260903192717 | 86 | 0.0 | 0.0 | 0.00 | 0.01 | 0.00 | 82 | 1011.8 | |
| 20260903192225 | 85 | 309 | 0.0 | 1.0 | 0.00 | 0.01 | 0.00 | 82 | 1011.7 |
| 20260903191722 | 85 | 0.0 | 0.0 | 0.00 | 0.01 | 0.00 | 83 | 1011.9 | |
| 20260903191220 | 84 | 0.0 | 0.0 | 0.00 | 0.01 | 0.00 | 83 | 1011.9 | |
| 20260903190717 | 83 | 0.0 | 0.0 | 0.00 | 0.01 | 0.00 | 84 | 1012.0 | |
| 20260903190225 | 83 | 0.0 | 0.0 | 0.00 | 0.01 | 0.00 | 84 | 1012.0 | |
| 20260903185722 | 83 | 0.0 | 0.0 | 0.00 | 0.01 | 0.00 | 84 | 1012.0 | |
| 20260903185240 | 83 | 0.0 | 0.0 | 0.00 | 0.01 | 0.00 | 84 | 1012.1 | |
| 20260903184717 | 84 | 0.0 | 0.0 | 0.00 | 0.01 | 0.00 | 82 | 1012.0 | |
| 20260903184225 | 84 | 0.0 | 0.0 | 0.00 | 0.01 | 0.00 | 82 | 1012.2 | |
| 20260903183723 | 84 | 241 | 0.0 | 3.0 | 0.00 | 0.01 | 0.00 | 81 | 1012.4 |
| 20260903183240 | 85 | 253 | 4.0 | 8.0 | 0.00 | 0.01 | 0.00 | 81 | 1012.3 |
| 20260903182718 | 85 | 252 | 3.0 | 7.0 | 0.00 | 0.01 | 0.00 | 80 | 1012.4 |
| 20260903182225 | 85 | 224 | 7.0 | 11.0 | 0.00 | 0.01 | 0.00 | 77 | 1012.3 |
| 20260903181722 | 85 | 244 | 5.0 | 8.0 | 0.00 | 0.01 | 0.00 | 77 | 1012.5 |
| 20260903181220 | 85 | 229 | 4.0 | 9.0 | 0.00 | 0.01 | 0.00 | 79 | 1012.3 |
| 20260903180718 | 86 | 220 | 8.0 | 15.0 | 0.00 | 0.01 | 0.00 | 79 | 1012.4 |
| 20260903180215 | 86 | 221 | 2.0 | 7.0 | 0.00 | 0.01 | 0.00 | 79 | 1012.1 |
| 20260903175723 | 86 | 228 | 2.0 | 8.0 | 0.00 | 0.01 | 0.00 | 79 | 1012.2 |
| 20260903175221 | 86 | 214 | 2.0 | 6.0 | 0.00 | 0.01 | 0.00 | 78 | 1012.4 |
| 20260903174718 | 87 | 233 | 6.0 | 11.0 | 0.00 | 0.01 | 0.00 | 77 | 1012.7 |
| 20260903174236 | 88 | 207 | 1.0 | 4.0 | 0.00 | 0.01 | 0.00 | 76 | 1012.6 |
| 20260903173723 | 89 | 202 | 4.0 | 8.0 | 0.00 | 0.01 | 0.00 | 75 | 1012.3 |
| 20260903173221 | 89 | 177 | 0.0 | 2.0 | 0.00 | 0.01 | 0.00 | 75 | 1012.2 |
| 20260903172718 | 89 | 0.0 | 0.0 | 0.00 | 0.01 | 0.00 | 75 | 1012.3 | |
| 20260903172216 | 89 | 0.0 | 0.0 | 0.00 | 0.01 | 0.00 | 74 | 1012.3 | |
| 20260903171723 | 90 | 0.0 | 0.0 | 0.00 | 0.01 | 0.00 | 74 | 1012.4 | |
| 20260903171221 | 90 | 0.0 | 0.0 | 0.00 | 0.01 | 0.00 | 74 | 1012.4 | |
| 20260903170718 | 89 | 170 | 0.0 | 3.0 | 0.00 | 0.01 | 0.00 | 76 | 1012.3 |
| 20260903170216 | 89 | 0.0 | 0.0 | 0.00 | 0.01 | 0.00 | 75 | 1012.3 | |
| 20260903165804 | 89 | 0.0 | 0.0 | 0.00 | 0.01 | 0.00 | 76 | 1012.6 | |
| 20260903165221 | 89 | 0.0 | 0.0 | 0.00 | 0.01 | 0.00 | 76 | 1012.5 | |
| 20260903164718 | 89 | 0.0 | 0.0 | 0.00 | 0.01 | 0.00 | 77 | 1012.5 | |
| 20260903164216 | 89 | 0.0 | 0.0 | 0.00 | 0.01 | 0.00 | 77 | 1012.6 | |
| 20260903163723 | 89 | 0.0 | 0.0 | 0.00 | 0.01 | 0.00 | 77 | 1012.9 | |
| 20260903163221 | 89 | 0.0 | 0.0 | 0.00 | 0.01 | 0.00 | 78 | 1012.9 | |
| 20260903162719 | 88 | 0.0 | 0.0 | 0.00 | 0.01 | 0.00 | 78 | 1012.9 | |
| 20260903162216 | 88 | 0.0 | 0.0 | 0.00 | 0.01 | 0.00 | 80 | 1012.9 | |
| 20260903161744 | 87 | 0.0 | 0.0 | 0.00 | 0.01 | 0.00 | 80 | 1012.9 | |
| 20260903161222 | 87 | 0.0 | 0.0 | 0.00 | 0.01 | 0.00 | 79 | 1013.1 | |
| 20260903160719 | 88 | 0.0 | 0.0 | 0.00 | 0.01 | 0.00 | 81 | 1013.2 | |
| 20260903160217 | 87 | 0.0 | 0.0 | 0.00 | 0.01 | 0.00 | 80 | 1013.2 | |
| 20260903155727 | 87 | 0.0 | 0.0 | 0.00 | 0.01 | 0.00 | 81 | 1013.3 | |
| 20260903155242 | 87 | 0.0 | 0.0 | 0.00 | 0.01 | 0.00 | 81 | 1013.2 | |
| 20260903154720 | 87 | 0.0 | 0.0 | 0.00 | 0.01 | 0.00 | 81 | 1013.2 | |
| 20260903154237 | 86 | 0.0 | 0.0 | 0.00 | 0.01 | 0.00 | 82 | 1013.3 | |
| 20260903153725 | 86 | 0.0 | 0.0 | 0.00 | 0.01 | 0.00 | 82 | 1013.2 | |
| 20260903153222 | 86 | 0.0 | 0.0 | 0.00 | 0.01 | 0.00 | 83 | 1013.5 | |
| 20260903152720 | 86 | 0.0 | 0.0 | 0.00 | 0.01 | 0.00 | 83 | 1013.4 | |
| 20260903152217 | 86 | 0.0 | 0.0 | 0.00 | 0.01 | 0.00 | 83 | 1013.4 | |
| 20260903151725 | 86 | 0.0 | 0.0 | 0.00 | 0.01 | 0.00 | 85 | 1013.4 | |
| 20260903151223 | 85 | 0.0 | 0.0 | 0.00 | 0.01 | 0.00 | 83 | 1013.2 | |
| 20260903150720 | 85 | 0.0 | 0.0 | 0.00 | 0.01 | 0.00 | 84 | 1013.3 | |
| 20260903150218 | 85 | 0.0 | 0.0 | 0.00 | 0.01 | 0.00 | 85 | 1013.5 | |
| 20260903145716 | 85 | 0.0 | 0.0 | 0.00 | 0.01 | 0.00 | 84 | 1013.3 | |
| 20260903145223 | 85 | 0.0 | 0.0 | 0.00 | 0.01 | 0.00 | 86 | 1013.3 | |
| 20260903144721 | 84 | 0.0 | 0.0 | 0.00 | 0.01 | 0.00 | 86 | 1013.1 | |
| 20260903144219 | 84 | 0.0 | 0.0 | 0.00 | 0.01 | 0.00 | 87 | 1013.1 | |
| 20260903143716 | 84 | 0.0 | 0.0 | 0.00 | 0.01 | 0.00 | 87 | 1013.0 | |
| 20260903143224 | 83 | 0.0 | 0.0 | 0.00 | 0.01 | 0.00 | 88 | 1013.0 | |
| 20260903142721 | 83 | 0.0 | 0.0 | 0.00 | 0.01 | 0.00 | 88 | 1013.1 | |
| 20260903142219 | 83 | 0.0 | 0.0 | 0.00 | 0.01 | 0.00 | 88 | 1013.1 | |
| 20260903141737 | 83 | 0.0 | 0.0 | 0.00 | 0.01 | 0.00 | 88 | 1013.0 | |
| 20260903141224 | 83 | 0.0 | 0.0 | 0.00 | 0.01 | 0.00 | 88 | 1013.1 | |
| 20260903140722 | 83 | 0.0 | 0.0 | 0.00 | 0.01 | 0.00 | 89 | 1013.1 | |
| 20260903140219 | 82 | 0.0 | 0.0 | 0.00 | 0.01 | 0.00 | 90 | 1012.9 | |
| 20260903135717 | 82 | 0.0 | 0.0 | 0.00 | 0.01 | 0.00 | 90 | 1013.3 | |
| 20260903135245 | 82 | 0.0 | 0.0 | 0.00 | 0.01 | 0.00 | 90 | 1013.3 | |
| 20260903134802 | 82 | 0.0 | 0.0 | 0.00 | 0.01 | 0.00 | 92 | 1013.3 | |
| 20260903134219 | 81 | 0.0 | 0.0 | 0.00 | 0.01 | 0.00 | 92 | 1013.3 | |
| 20260903133717 | 81 | 0.0 | 0.0 | 0.00 | 0.01 | 0.00 | 91 | 1013.1 | |
| 20260903133225 | 81 | 0.0 | 0.0 | 0.00 | 0.01 | 0.00 | 91 | 1013.2 | |
| 20260903132742 | 81 | 0.0 | 0.0 | 0.00 | 0.01 | 0.00 | 91 | 1013.3 | |
| 20260903132220 | 81 | 0.0 | 0.0 | 0.00 | 0.01 | 0.00 | 92 | 1013.3 | |
| 20260903131717 | 81 | 0.0 | 0.0 | 0.00 | 0.01 | 0.00 | 91 | 1013.3 | |
| 20260903131235 | 81 | 0.0 | 0.0 | 0.00 | 0.01 | 0.00 | 92 | 1013.1 | |
| 20260903130723 | 81 | 0.0 | 0.0 | 0.00 | 0.01 | 0.00 | 91 | 1013.2 | |
| 20260903130301 | 81 | 0.0 | 0.0 | 0.00 | 0.01 | 0.00 | 92 | 1013.3 | |
| 20260903125718 | 80 | 0.0 | 0.0 | 0.00 | 0.01 | 0.00 | 92 | 1013.3 | |
| 20260903125216 | 80 | 0.0 | 0.0 | 0.00 | 0.01 | 0.00 | 92 | 1013.0 | |
| 20260903124724 | 80 | 0.0 | 0.0 | 0.00 | 0.01 | 0.00 | 93 | 1013.0 | |
| 20260903124221 | 80 | 0.0 | 0.0 | 0.00 | 0.01 | 0.00 | 94 | 1012.8 | |
| 20260903123719 | 80 | 0.0 | 0.0 | 0.00 | 0.01 | 0.00 | 94 | 1012.9 | |
| 20260903123217 | 80 | 0.0 | 0.0 | 0.00 | 0.01 | 0.00 | 95 | 1012.8 | |
| 20260903122724 | 79 | 0.0 | 0.0 | 0.00 | 0.01 | 0.00 | 96 | 1012.7 | |
| 20260903122222 | 79 | 0.0 | 0.0 | 0.00 | 0.01 | 0.00 | 96 | 1012.7 | |
| 20260903121719 | 79 | 0.0 | 0.0 | 0.00 | 0.01 | 0.00 | 97 | 1012.8 | |
| 20260903121217 | 79 | 0.0 | 0.0 | 0.00 | 0.01 | 0.00 | 98 | 1012.7 | |
| 20260903120725 | 78 | 0.0 | 0.0 | 0.00 | 0.01 | 0.00 | 98 | 1012.6 | |
| 20260903120242 | 78 | 0.0 | 0.0 | 0.00 | 0.01 | 0.00 | 98 | 1012.5 | |
| 20260903115720 | 78 | 0.0 | 0.0 | 0.00 | 0.01 | 0.00 | 98 | 1012.4 | |
| 20260903115217 | 77 | 0.0 | 0.0 | 0.00 | 0.01 | 0.00 | 98 | 1012.3 | |
| 20260903114725 | 77 | 0.0 | 0.0 | 0.00 | 0.01 | 0.00 | 98 | 1012.4 | |
| 20260903114223 | 77 | 0.0 | 0.0 | 0.00 | 0.01 | 0.00 | 98 | 1012.2 | |
| 20260903113721 | 77 | 0.0 | 0.0 | 0.00 | 0.01 | 0.00 | 98 | 1012.0 | |
| 20260903113218 | 77 | 0.0 | 0.0 | 0.00 | 0.01 | 0.00 | 97 | 1012.2 | |
| 20260903112716 | 77 | 0.0 | 0.0 | 0.00 | 0.01 | 0.00 | 97 | 1012.1 | |
| 20260903112243 | 77 | 0.0 | 0.0 | 0.00 | 0.01 | 0.00 | 97 | 1012.1 | |
| 20260903111740 | 76 | 0.0 | 0.0 | 0.00 | 0.01 | 0.00 | 97 | 1012.1 | |
| 20260903111218 | 76 | 0.0 | 0.0 | 0.00 | 0.01 | 0.00 | 97 | 1011.9 | |
| 20260903110716 | 76 | 0.0 | 0.0 | 0.00 | 0.01 | 0.00 | 97 | 1011.9 | |
| 20260903110223 | 76 | 0.0 | 0.0 | 0.00 | 0.01 | 0.00 | 97 | 1011.8 | |
| 20260903105741 | 77 | 0.0 | 0.0 | 0.00 | 0.01 | 0.00 | 97 | 1011.9 | |
| 20260903105238 | 77 | 0.0 | 0.0 | 0.00 | 0.01 | 0.00 | 97 | 1011.8 | |
| 20260903104717 | 77 | 0.0 | 0.0 | 0.00 | 0.01 | 0.00 | 97 | 1011.9 | |
| 20260903104224 | 77 | 0.0 | 0.0 | 0.00 | 0.01 | 0.00 | 97 | 1011.9 | |
| 20260903103742 | 77 | 0.0 | 0.0 | 0.00 | 0.01 | 0.00 | 97 | 1011.7 | |
| 20260903103219 | 77 | 0.0 | 0.0 | 0.00 | 0.01 | 0.00 | 97 | 1011.8 | |
| 20260903102717 | 77 | 0.0 | 0.0 | 0.00 | 0.01 | 0.00 | 97 | 1011.9 | |
| 20260903102244 | 77 | 0.0 | 0.0 | 0.00 | 0.01 | 0.00 | 97 | 1011.7 | |
| 20260903101722 | 77 | 0.0 | 0.0 | 0.00 | 0.01 | 0.00 | 97 | 1011.9 | |
| 20260903101220 | 77 | 0.0 | 0.0 | 0.00 | 0.01 | 0.00 | 97 | 1011.7 | |
| 20260903100718 | 77 | 0.0 | 0.0 | 0.00 | 0.01 | 0.00 | 97 | 1011.8 | |
| 20260903100225 | 77 | 0.0 | 0.0 | 0.00 | 0.01 | 0.00 | 97 | 1011.7 | |
| 20260903095723 | 77 | 0.0 | 0.0 | 0.00 | 0.01 | 0.00 | 97 | 1011.5 | |
| 20260903095220 | 77 | 0.0 | 0.0 | 0.00 | 0.01 | 0.00 | 97 | 1011.4 | |
| 20260903094718 | 77 | 0.0 | 0.0 | 0.00 | 0.01 | 0.00 | 97 | 1011.3 | |
| 20260903094216 | 77 | 0.0 | 0.0 | 0.00 | 0.01 | 0.00 | 97 | 1011.2 | |
| 20260903093723 | 77 | 0.0 | 0.0 | 0.00 | 0.01 | 0.00 | 97 | 1011.2 | |
| 20260903093221 | 77 | 0.0 | 0.0 | 0.00 | 0.01 | 0.00 | 97 | 1010.8 | |
| 20260903092718 | 77 | 0.0 | 0.0 | 0.00 | 0.01 | 0.00 | 98 | 1011.0 | |
| 20260903092236 | 77 | 0.0 | 0.0 | 0.00 | 0.01 | 0.00 | 98 | 1011.1 | |
| 20260903091724 | 77 | 0.0 | 0.0 | 0.00 | 0.01 | 0.00 | 98 | 1010.9 | |
| 20260903091222 | 77 | 0.0 | 0.0 | 0.00 | 0.01 | 0.00 | 98 | 1011.0 | |
| 20260903090719 | 77 | 0.0 | 0.0 | 0.00 | 0.01 | 0.00 | 98 | 1011.0 | |
| 20260903090216 | 77 | 0.0 | 0.0 | 0.00 | 0.01 | 0.00 | 98 | 1010.9 | |
| 20260903085724 | 77 | 0.0 | 0.0 | 0.00 | 0.01 | 0.00 | 97 | 1010.7 | |
| 20260903085222 | 77 | 0.0 | 0.0 | 0.00 | 0.01 | 0.00 | 97 | 1010.7 | |
| 20260903084739 | 77 | 0.0 | 0.0 | 0.00 | 0.01 | 0.00 | 97 | 1010.7 | |
| 20260903084237 | 77 | 0.0 | 0.0 | 0.00 | 0.01 | 0.00 | 97 | 1010.7 | |
| 20260903083745 | 78 | 0.0 | 0.0 | 0.00 | 0.01 | 0.00 | 98 | 1010.6 | |
| 20260903083222 | 78 | 0.0 | 0.0 | 0.00 | 0.01 | 0.00 | 98 | 1010.7 | |
| 20260903082720 | 78 | 0.0 | 0.0 | 0.00 | 0.01 | 0.00 | 98 | 1010.8 | |
| 20260903082218 | 77 | 0.0 | 0.0 | 0.00 | 0.01 | 0.00 | 98 | 1010.9 | |
| 20260903081735 | 77 | 0.0 | 0.0 | 0.00 | 0.01 | 0.00 | 97 | 1010.9 | |
| 20260903081223 | 77 | 0.0 | 0.0 | 0.00 | 0.01 | 0.00 | 98 | 1010.7 | |
| 20260903080718 | 78 | 0.0 | 0.0 | 0.00 | 0.01 | 0.00 | 98 | 1011.1 | |
| 20260903080216 | 78 | 0.0 | 0.0 | 0.00 | 0.01 | 0.00 | 98 | 1011.2 | |
| 20260903075744 | 78 | 0.0 | 0.0 | 0.00 | 0.01 | 0.00 | 98 | 1011.0 | |
| 20260903075223 | 78 | 0.0 | 0.0 | 0.00 | 0.01 | 0.00 | 98 | 1011.1 | |
| 20260903074718 | 78 | 0.0 | 0.0 | 0.00 | 0.01 | 0.00 | 98 | 1011.2 | |
| 20260903074216 | 78 | 0.0 | 0.0 | 0.00 | 0.01 | 0.00 | 98 | 1011.1 | |
| 20260903073724 | 78 | 0.0 | 0.0 | 0.00 | 0.01 | 0.00 | 98 | 1011.1 | |
| 20260903073223 | 78 | 0.0 | 0.0 | 0.00 | 0.01 | 0.00 | 98 | 1011.3 | |
| 20260903072719 | 78 | 38 | 0.0 | 1.0 | 0.00 | 0.01 | 0.00 | 98 | 1011.2 |
| 20260903072216 | 78 | 98 | 0.0 | 2.0 | 0.00 | 0.01 | 0.00 | 98 | 1011.0 |
| 20260903071724 | 78 | 0.0 | 0.0 | 0.00 | 0.01 | 0.00 | 98 | 1011.3 | |
| 20260903071222 | 78 | 0.0 | 0.0 | 0.00 | 0.01 | 0.00 | 98 | 1011.1 | |
| 20260903070719 | 78 | 0.0 | 0.0 | 0.00 | 0.01 | 0.00 | 97 | 1011.3 | |
| 20260903070259 | 78 | 0.0 | 0.0 | 0.00 | 0.01 | 0.00 | 97 | 1011.2 | |
| 20260903065725 | 78 | 0.0 | 0.0 | 0.00 | 0.01 | 0.00 | 97 | 1011.4 | |
| 20260903065222 | 78 | 0.0 | 0.0 | 0.00 | 0.01 | 0.00 | 97 | 1011.4 | |
| 20260903064720 | 78 | 0.0 | 0.0 | 0.00 | 0.01 | 0.00 | 97 | 1011.3 | |
| 20260903064218 | 78 | 0.0 | 0.0 | 0.00 | 0.01 | 0.00 | 97 | 1011.4 | |
| 20260903063725 | 78 | 0.0 | 0.0 | 0.00 | 0.01 | 0.00 | 96 | 1011.5 | |
| 20260903063223 | 78 | 0.0 | 0.0 | 0.00 | 0.01 | 0.00 | 96 | 1011.6 | |
| 20260903062720 | 78 | 0.0 | 0.0 | 0.00 | 0.01 | 0.00 | 96 | 1011.7 | |
| 20260903062218 | 78 | 0.0 | 0.0 | 0.00 | 0.01 | 0.00 | 96 | 1011.8 | |
| 20260903061715 | 78 | 0.0 | 0.0 | 0.00 | 0.01 | 0.00 | 97 | 1011.9 | |
| 20260903061223 | 78 | 0.0 | 0.0 | 0.00 | 0.01 | 0.00 | 97 | 1011.8 | |
| 20260903060720 | 78 | 0.0 | 0.0 | 0.00 | 0.01 | 0.00 | 97 | 1011.9 | |
| 20260903060218 | 78 | 0.0 | 0.0 | 0.00 | 0.01 | 0.00 | 97 | 1012.0 | |
| 20260903055718 | 78 | 0.0 | 0.0 | 0.00 | 0.01 | 0.00 | 97 | 1011.8 | |
| 20260903055223 | 78 | 0.0 | 0.0 | 0.00 | 0.01 | 0.00 | 96 | 1011.9 | |
| 20260903054721 | 78 | 0.0 | 0.0 | 0.00 | 0.01 | 0.00 | 96 | 1011.9 | |
| 20260903054219 | 78 | 0.0 | 0.0 | 0.00 | 0.01 | 0.00 | 96 | 1011.8 | |
| 20260903053737 | 78 | 0.0 | 0.0 | 0.00 | 0.01 | 0.00 | 97 | 1011.8 | |
| 20260903053224 | 78 | 0.0 | 0.0 | 0.00 | 0.01 | 0.00 | 97 | 1011.9 | |
| 20260903052724 | 78 | 0.0 | 0.0 | 0.00 | 0.01 | 0.00 | 97 | 1012.0 | |
| 20260903052219 | 78 | 0.0 | 0.0 | 0.00 | 0.01 | 0.00 | 97 | 1012.1 | |
| 20260903051717 | 78 | 0.0 | 0.0 | 0.00 | 0.01 | 0.00 | 97 | 1012.3 | |
| 20260903051225 | 78 | 0.0 | 0.0 | 0.00 | 0.01 | 0.00 | 97 | 1012.3 | |
| 20260903050742 | 78 | 0.0 | 0.0 | 0.00 | 0.01 | 0.00 | 97 | 1012.2 | |
| 20260903050220 | 78 | 0.0 | 0.0 | 0.00 | 0.01 | 0.00 | 97 | 1012.4 | |
| 20260903045717 | 78 | 0.0 | 0.0 | 0.00 | 0.01 | 0.00 | 97 | 1012.5 | |
| 20260903045225 | 78 | 64 | 0.0 | 2.0 | 0.00 | 0.01 | 0.00 | 97 | 1012.5 |
| 20260903044723 | 78 | 0.0 | 0.0 | 0.00 | 0.01 | 0.00 | 97 | 1012.5 | |
| 20260903044220 | 77 | 36 | 0.0 | 1.0 | 0.00 | 0.01 | 0.00 | 97 | 1012.5 |
| 20260903043718 | 77 | 0.0 | 0.0 | 0.00 | 0.01 | 0.00 | 97 | 1012.6 | |
| 20260903043215 | 77 | 0.0 | 0.0 | 0.00 | 0.01 | 0.00 | 97 | 1012.6 | |
| 20260903042220 | 77 | 0.0 | 0.0 | 0.00 | 0.01 | 0.00 | 97 | 1012.6 | |
| 20260903041738 | 77 | 0.0 | 0.0 | 0.00 | 0.01 | 0.00 | 97 | 1012.5 | |
| 20260903041236 | 77 | 62 | 2.0 | 4.0 | 0.00 | 0.01 | 0.00 | 97 | 1012.7 |
| 20260903040723 | 77 | 79 | 1.0 | 7.0 | 0.00 | 0.01 | 0.00 | 97 | 1012.8 |
| 20260903040221 | 77 | 64 | 0.0 | 4.0 | 0.00 | 0.01 | 0.00 | 97 | 1012.9 |
| 20260903035718 | 77 | 0.0 | 0.0 | 0.00 | 0.01 | 0.01 | 96 | 1013.0 | |
| 20260903035216 | 77 | 0.0 | 0.0 | 0.00 | 0.01 | 0.01 | 96 | 1013.2 | |
| 20260903034723 | 77 | 0.0 | 0.0 | 0.00 | 0.01 | 0.01 | 96 | 1013.2 | |
| 20260903034221 | 77 | 0.0 | 0.0 | 0.00 | 0.01 | 0.01 | 96 | 1013.3 | |
| 20260903033718 | 77 | 0.0 | 0.0 | 0.01 | 0.01 | 0.01 | 96 | 1013.2 | |
| 20260903033236 | 77 | 0.0 | 0.0 | 0.01 | 0.01 | 0.01 | 96 | 1013.1 | |
| 20260903032723 | 77 | 0.0 | 0.0 | 0.01 | 0.01 | 0.01 | 96 | 1013.1 | |
| 20260903032221 | 77 | 0.0 | 0.0 | 0.01 | 0.01 | 0.01 | 96 | 1013.1 | |
| 20260903031719 | 77 | 0.0 | 0.0 | 0.01 | 0.01 | 0.01 | 96 | 1013.1 | |
| 20260903031216 | 77 | 0.0 | 0.0 | 0.01 | 0.01 | 0.01 | 96 | 1012.9 | |
| 20260903030724 | 77 | 0.0 | 0.0 | 0.01 | 0.01 | 0.01 | 96 | 1013.0 | |
| 20260903030221 | 77 | 0.0 | 0.0 | 0.01 | 0.01 | 0.01 | 96 | 1013.1 | |
| 20260903025719 | 77 | 0.0 | 0.0 | 0.01 | 0.01 | 0.01 | 95 | 1013.2 | |
| 20260903025237 | 77 | 0.0 | 0.0 | 0.01 | 0.01 | 0.01 | 95 | 1013.5 | |
| 20260903024724 | 77 | 0.0 | 0.0 | 0.01 | 0.01 | 0.01 | 94 | 1013.4 | |
| 20260903024221 | 77 | 0.0 | 0.0 | 0.01 | 0.01 | 0.01 | 94 | 1013.5 | |
| 20260903023739 | 77 | 0.0 | 0.0 | 0.00 | 0.00 | 0.00 | 94 | 1013.2 | |
| 20260903023217 | 77 | 47 | 1.0 | 6.0 | 0.00 | 0.00 | 0.00 | 94 | 1013.1 |
| 20260903022724 | 77 | 0.0 | 0.0 | 0.00 | 0.00 | 0.00 | 93 | 1013.2 | |
| 20260903022222 | 77 | 0.0 | 0.0 | 0.00 | 0.00 | 0.00 | 93 | 1013.2 | |
| 20260903021720 | 77 | 0.0 | 0.0 | 0.00 | 0.00 | 0.00 | 92 | 1013.2 | |
| 20260903021217 | 78 | 0.0 | 0.0 | 0.00 | 0.00 | 0.00 | 92 | 1013.4 | |
| 20260903020725 | 78 | 0.0 | 0.0 | 0.00 | 0.00 | 0.00 | 93 | 1013.4 | |
| 20260903020222 | 78 | 0.0 | 0.0 | 0.00 | 0.00 | 0.00 | 93 | 1013.2 | |
| 20260903015720 | 78 | 0.0 | 0.0 | 0.00 | 0.00 | 0.00 | 93 | 1013.1 | |
| 20260903015217 | 78 | 0.0 | 0.0 | 0.00 | 0.00 | 0.00 | 93 | 1013.0 | |
| 20260903014725 | 77 | 0.0 | 0.0 | 0.00 | 0.00 | 0.00 | 93 | 1012.9 | |
| 20260903014222 | 77 | 63 | 1.0 | 3.0 | 0.00 | 0.00 | 0.00 | 93 | 1012.7 |
| 20260903013720 | 77 | 0.0 | 0.0 | 0.00 | 0.00 | 0.00 | 93 | 1012.8 | |
| 20260903013217 | 77 | 0.0 | 0.0 | 0.00 | 0.00 | 0.00 | 93 | 1012.7 | |
| 20260903012725 | 77 | 0.0 | 0.0 | 0.00 | 0.00 | 0.00 | 93 | 1012.7 | |
| 20260903012223 | 77 | 0.0 | 0.0 | 0.00 | 0.00 | 0.00 | 93 | 1012.6 | |
| 20260903011720 | 77 | 0.0 | 0.0 | 0.00 | 0.00 | 0.00 | 92 | 1012.6 | |
| 20260903011218 | 77 | 0.0 | 0.0 | 0.00 | 0.00 | 0.00 | 92 | 1012.9 | |
| 20260903010715 | 77 | 0.0 | 0.0 | 0.00 | 0.00 | 0.00 | 92 | 1012.8 | |
| 20260903010223 | 77 | 0.0 | 0.0 | 0.00 | 0.00 | 0.00 | 92 | 1013.0 | |
| 20260903005721 | 77 | 0.0 | 0.0 | 0.00 | 0.00 | 0.00 | 92 | 1012.7 | |
| 20260903005218 | 77 | 57 | 1.0 | 3.0 | 0.00 | 0.00 | 0.00 | 92 | 1012.4 |
| 20260903004716 | 77 | 36 | 1.0 | 6.0 | 0.00 | 0.00 | 0.00 | 92 | 1012.4 |
| 20260903004223 | 77 | 29 | 0.0 | 4.0 | 0.00 | 0.00 | 0.00 | 92 | 1012.6 |
| 20260903003721 | 77 | 49 | 2.0 | 4.0 | 0.00 | 0.00 | 0.00 | 92 | 1012.6 |
| 20260903003218 | 77 | 59 | 0.0 | 2.0 | 0.00 | 0.00 | 0.00 | 92 | 1012.3 |
| 20260903002716 | 77 | 0.0 | 0.0 | 0.00 | 0.00 | 0.00 | 91 | 1012.1 | |
| 20260903002244 | 77 | 0.0 | 0.0 | 0.00 | 0.00 | 0.00 | 91 | 1011.9 | |
| 20260903001721 | 77 | 0.0 | 0.0 | 0.00 | 0.00 | 0.00 | 91 | 1011.9 | |
| 20260903001239 | 77 | 0.0 | 0.0 | 0.00 | 0.00 | 0.00 | 91 | 1012.0 | |
| 20260903000737 | 77 | 41 | 2.0 | 7.0 | 0.00 | 0.00 | 0.00 | 92 | 1012.0 |
| 20260903000226 | 76 | 0.0 | 0.0 | 0.00 | 0.00 | 0.00 | 92 | 1012.0 | |
| 20260902235722 | 76 | 0.0 | 0.0 | 0.00 | 0.00 | 0.00 | 92 | 1012.3 | |
| 20260902235219 | 76 | 67 | 1.0 | 3.0 | 0.00 | 0.00 | 0.00 | 92 | 1012.3 |
| 20260902234717 | 76 | 0.0 | 0.0 | 0.00 | 0.00 | 0.00 | 92 | 1012.4 | |
| 20260902234225 | 76 | 0.0 | 0.0 | 0.00 | 0.00 | 0.00 | 91 | 1012.4 | |
| 20260902233723 | 76 | 0.0 | 0.0 | 0.00 | 0.00 | 0.00 | 91 | 1012.6 | |
| 20260902233220 | 77 | 0.0 | 0.0 | 0.00 | 0.00 | 0.00 | 91 | 1012.4 | |
| 20260902232738 | 77 | 57 | 3.0 | 7.0 | 0.00 | 0.00 | 0.00 | 91 | 1012.4 |
| 20260902232215 | 77 | 58 | 4.0 | 8.0 | 0.00 | 0.00 | 0.00 | 90 | 1012.8 |
| 20260902231723 | 77 | 40 | 6.0 | 10.0 | 0.00 | 0.00 | 0.00 | 90 | 1012.9 |
| 20260902231221 | 77 | 58 | 10.0 | 19.0 | 0.00 | 0.00 | 0.00 | 89 | 1012.7 |
| 20260902230739 | 78 | 54 | 7.0 | 10.0 | 0.00 | 0.00 | 0.00 | 87 | 1013.0 |
| 20260902230216 | 78 | 71 | 8.0 | 14.0 | 0.00 | 0.00 | 0.00 | 85 | 1013.0 |
| 20260902225723 | 79 | 56 | 8.0 | 16.0 | 0.00 | 0.00 | 0.00 | 83 | 1013.0 |
| 20260902225221 | 80 | 45 | 12.0 | 22.0 | 0.00 | 0.00 | 0.00 | 81 | 1013.0 |
| 20260902224739 | 82 | 77 | 14.0 | 21.0 | 0.00 | 0.00 | 0.00 | 82 | 1012.8 |